Location: Apollinopolis Magna
(24.9792°N, 32.8772°E)
Time: 11:56:51
(UTC+00:00)

Lacrosse 5 rocket - Pass Details

Date: 02 March 2021
Orbit: 463 x 631 km, 57.0° (Epoch: 15 April)

Event Time Altitude Azimuth Distance (km) Brightness Sun altitude
Rises 16:55:28 0° 302° (WNW) 2,796 5.9 -15.3°
Reaches altitude 10° 16:58:35 10° 279° (W) 1,856 5.3 -16.0°
Maximum altitude 17:00:58 15° 244° (WSW) 1,534 4.5 -16.6°
Drops below altitude 10° 17:03:18 10° 209° (SSW) 1,789 4.3 -17.1°
Sets 17:06:14 0° 185° (S) 2,635 4.9 -17.8°
